Location: Arroyo de Valdeoliva
(40.1604°N, 4.9878°W)
Time: 12:55:29
(UTC+00:00)

ARIANE 6 FM1 Upper Stage - Pass Details

Date: 18 February 2026
Orbit: 523 x 607 km, 62.0° (Epoch: 8 March)

Event Time Altitude Azimuth Distance (km) Brightness Sun altitude
Rises 19:16:03 0° 325° (NW) 2,656 6.6 -15.4°
Reaches altitude 10° 19:18:15 10° 327° (NNW) 1,766 5.6 -15.8°
Maximum altitude 19:22:12 75° 53° (NE) 549 2.4 -16.5°
Enters shadow 19:24:25 25° 135° (SE) 1,090 3.7 -17.0°
